カタログに戻る

COSMOS 2251 DEB

運用中LEO
NORAD 34554·DEBRIS·🇷🇺 Russia

打ち上げ Jun 16, 1993 から Plesetsk Cosmodrome

Loading…

次のパス (今後24時間)

TLE

最新Source: Space-Track

元期: Sep 14, 2026, 12:22 UTC

1 34554U 93036UQ  26257.51545068  .00000425  00000-0  14779-3 0  9990
2 34554  74.0387 150.9986 0023027 152.6733 266.1726 14.38363032917203

AllMySatでCOSMOS 2251 DEBをリアルタイム追跡

Download on the App Store